Погода в Ямбе

Австралия     29°26′18″S   153°21′25″E
темп.,
°C
ветер,
м/с
пор.,
м/с
влажн.,
%
обл.,
%
осадки,
мм/ч
давл.,
гПа
погр.,
м
25 июля, вс
вс2501:00+7з11820 0.0 100921
04:00+7сз12780 0.0 100833
07:00+10зсз29630 0.0 1010213
10:00+17зюз312390 0.0 10111751
13:00+20зюз48280 0.0 10091943
16:00+18з37390 0.0 1010758
19:00+11з311560 0.0 1015253
22:00+7з26700 0.0 1017105
26 июля, пн
пн2601:00+6з24750 0.0 101764
04:00+4з23770 0.0 101746
07:00+4зсз22760 0.0 102046
10:00+15з26423 0.0 1020531
13:00+19з353331 0.0 10171165
16:00+18ссв2346100 0.0 101786
19:00+11с136796 0.0 101949
22:00+8зюз118195 0.0 102118
27 июля, вт
вт2701:00+7з24872 0.0 102174
04:00+6з22920 0.0 102147
07:00+6зюз12910 0.0 102346
10:00+16з12530 0.0 1023418
13:00+20св23420 0.0 10201304
16:00+17всв36610 0.0 1018392
19:00+12с24850 0.0 101980
22:00+9зсз11950 0.0 101923
28 июля, ср
ср2801:00+8зсз12963 0.0 101836
04:00+7зсз11940 0.0 101727
07:00+6зсз12900 0.0 101745
10:00+18ссз38460 0.0 1016536
13:00+22ссз47350 0.0 10121256
16:00+22ссз49410 0.0 1010942
19:00+15ссз211651 0.0 1012270
22:00+12ссз27785 0.0 1011134
29 июля, чт
чт2901:00+13зсз177199 0.0 1010151
04:00+15зсз3147242 0.1 1010760
07:00+11юз24900 0.0 101391
10:00+17зюз48370 0.0 10161276
13:00+19зюз39250 0.0 10132430
16:00+18зюз39280 0.0 10141610
19:00+12зюз311380 0.0 1017373
22:00+9зюз311510 0.0 1019295